GFSNGP_250_spd_021.txt.gz
Wind_Speed
34 33 32 33 39 35 33 35 29 23 10 16 36 33 26 22 22 22 22 22 21 27 18 25 24 26 23 21 19 15 12 5 4 7 6 7 6 6 5 8 8 8 8 8
28 29 24 24 31 29 28 31 30 26 30 31 54 53 31 25 25 25 27 24 20 28 23 28 24 27 22 18 14 18 14 10 7 5 5 8 10 9 7 6 4 5 5 6
27 25 19 18 28 25 26 29 29 32 34 32 47 45 32 30 27 29 30 30 20 30 24 33 25 23 26 21 20 19 14 15 11 8 6 6 10 13 11 9 8 7 8 9
28 20 16 22 21 22 25 27 29 30 22 7 50 39 31 30 30 31 32 33 28 29 28 31 28 26 24 25 24 21 21 21 16 15 12 12 14 16 19 18 15 16 16 15
20 15 16 14 25 26 25 26 21 19 23 31 34 32 30 31 31 33 32 34 33 33 30 31 28 25 27 27 26 25 25 24 22 22 19 21 21 21 22 27 25 24 21 22
27 20 15 19 19 22 21 20 7 14 29 43 33 30 29 30 34 34 30 35 37 37 33 31 29 30 32 32 30 29 26 27 27 26 27 27 28 30 33 35 32 30 30 32
31 26 25 20 14 20 20 19 19 37 46 39 29 26 30 30 34 35 33 37 42 40 38 35 33 34 33 34 35 33 31 31 31 31 32 33 35 38 40 38 38 36 37 38
35 32 32 27 24 22 22 24 25 32 31 28 27 27 31 31 35 35 33 37 44 43 42 39 37 38 37 37 38 37 35 34 36 37 38 40 42 45 44 43 43 45 46 47
37 37 33 32 29 28 21 21 23 29 27 23 24 28 29 31 34 32 28 37 42 45 40 42 41 40 42 44 40 42 41 42 43 44 45 44 47 47 48 48 50 51 52 52
40 40 33 35 34 34 30 23 23 25 29 24 23 28 30 30 34 33 30 30 42 45 45 43 42 44 43 42 44 46 46 46 47 46 47 48 50 50 51 54 55 55 56 57
47 42 40 36 36 38 38 34 25 24 29 28 26 27 29 30 34 37 33 32 32 40 41 43 49 45 45 47 47 47 48 49 50 51 52 54 57 60 61 62 62 63 63 61
53 43 45 42 45 43 41 41 36 30 28 30 29 27 29 33 32 35 38 35 34 38 40 41 43 45 49 50 51 52 53 56 57 58 60 61 62 63 65 66 67 68 69 68
60 58 56 52 50 46 45 44 43 41 35 30 32 31 29 32 34 37 42 43 45 46 48 47 46 47 48 50 52 52 55 59 61 62 64 65 66 69 71 71 72 73 74 74
68 66 63 59 56 55 51 49 46 46 44 40 34 34 36 35 37 40 42 44 46 49 49 49 48 48 49 51 53 55 57 57 58 60 62 63 66 67 69 71 74 75 77 79
75 71 70 66 65 59 56 55 54 50 51 49 47 43 40 41 43 45 47 49 49 51 53 54 53 52 54 56 58 59 60 61 62 64 65 67 69 70 72 74 76 79 81 84
79 77 75 72 67 64 65 61 57 57 59 56 55 53 51 49 50 51 51 51 52 54 53 55 58 58 59 60 61 62 64 65 66 67 69 70 72 74 76 78 80 82 83 86
85 85 83 77 73 72 70 70 64 62 64 64 62 61 60 61 60 60 58 59 57 58 58 58 58 59 59 60 62 63 65 66 67 69 72 75 77 79 81 83 86 88 90 92
90 88 88 85 82 81 79 73 71 68 68 69 70 68 66 67 67 67 66 65 65 64 63 64 65 66 67 69 69 70 72 73 74 76 79 81 83 86 88 90 92 95 97 100
96 95 94 90 86 85 83 79 79 75 72 74 74 74 74 77 74 71 73 71 71 72 70 69 70 72 73 76 77 78 79 80 82 84 85 87 89 91 93 95 96 99 102 103
89 89 90 91 91 91 90 90 85 80 75 73 77 77 78 79 78 77 76 76 77 75 75 76 77 78 80 80 81 82 84 86 87 89 90 92 95 97 98 100 103 104 104 101
82 85 87 87 86 87 89 91 90 87 84 82 81 78 84 82 81 82 81 80 81 81 80 80 81 83 84 86 88 89 91 92 92 94 97 98 100 102 104 104 102 97 91 87
62 69 74 79 82 84 85 84 84 84 85 86 84 84 86 86 86 87 87 87 86 85 85 85 86 86 88 89 91 92 93 96 97 98 100 100 100 101 98 91 87 82 80 78
45 50 54 59 62 68 74 79 81 82 82 82 80 83 85 85 85 85 85 86 87 87 87 88 88 88 89 91 91 93 94 96 97 98 98 97 91 85 81 79 79 77 73 67
27 31 35 41 46 54 60 64 65 68 75 81 82 83 86 86 87 86 84 84 84 85 85 86 88 90 91 91 93 93 94 94 91 85 81 79 77 75 75 72 71 68 66 65
12 17 21 26 32 39 44 50 53 58 58 60 63 70 74 76 75 76 80 81 82 82 83 83 84 85 85 85 83 80 77 72 70 71 72 72 71 70 67 66 66 67 71 72
6 7 10 14 18 23 27 31 35 39 43 45 47 50 53 57 59 60 61 67 67 64 67 66 66 65 65 64 63 63 64 64 65 65 65 65 66 67 69 72 75 76 79 79
12 11 10 10 10 12 15 18 22 26 30 33 35 37 38 43 46 45 47 49 51 52 52 51 51 52 53 54 55 57 58 58 60 60 63 67 70 73 75 78 78 79 78 78

GFSNGP_250_spd_024.txt.gz
Wind_Speed
34 28 30 31 32 35 34 33 32 32 16 11 11 18 20 30 33 23 28 24 20 22 28 29 22 29 30 34 28 24 20 18 13 5 3 3 1 3 5 5 3 1 2 2
30 31 28 30 29 29 33 30 31 23 18 27 21 23 17 37 44 41 41 31 25 27 23 23 23 32 30 32 28 27 23 18 15 16 13 7 3 3 3 5 6 7 6 7
31 31 29 21 22 22 26 23 26 21 31 25 23 21 34 52 54 44 43 38 30 27 20 26 26 31 30 32 27 25 26 21 21 17 16 12 9 8 6 6 9 11 13 16
34 30 23 26 19 18 19 21 24 23 24 33 28 35 19 24 33 40 39 34 34 32 23 30 27 33 31 31 29 26 23 25 24 19 18 17 17 13 14 14 13 13 18 22
32 32 31 26 17 18 16 20 17 18 20 24 27 19 41 46 51 52 45 38 35 34 30 33 31 35 33 31 33 31 28 27 27 25 24 26 24 24 23 24 23 22 25 26
33 33 31 24 16 15 14 15 8 17 32 32 31 26 42 52 46 44 40 38 37 33 34 34 38 35 35 36 35 34 30 34 32 30 30 31 32 33 31 32 32 30 32 32
39 29 25 15 16 16 16 20 24 30 32 30 30 18 36 37 40 44 39 37 37 37 42 40 38 38 39 41 39 35 34 33 34 32 34 35 34 36 36 36 37 40 39 39
43 33 30 26 22 24 26 27 31 32 31 33 35 42 41 39 46 45 36 39 43 43 40 40 43 43 43 42 40 38 40 39 41 42 41 36 35 39 40 42 45 44 46 45
44 35 31 27 27 29 28 27 32 30 29 33 34 39 40 44 41 36 34 42 45 43 42 45 47 46 45 44 43 44 45 46 45 43 45 44 42 45 46 48 50 49 49 51
38 37 31 33 33 36 30 27 30 29 28 31 31 34 32 34 32 29 32 39 41 42 41 47 46 49 48 47 45 45 47 49 49 51 49 48 51 53 54 54 54 54 55 57
45 42 30 35 38 38 37 34 23 23 24 25 29 28 26 26 24 25 31 37 39 37 37 41 49 50 49 50 50 50 50 51 52 54 55 55 54 56 57 57 58 59 61 65
49 42 38 44 45 44 41 38 35 34 27 26 29 28 28 27 25 26 29 36 41 40 37 36 45 48 53 54 52 52 53 54 54 56 58 59 59 60 62 64 66 68 70 70
54 48 51 46 48 46 42 41 41 39 36 35 33 30 31 30 30 29 33 36 40 43 43 43 43 45 49 51 53 55 56 55 56 56 58 61 63 65 67 68 70 71 71 71
60 62 61 56 51 49 48 45 45 44 40 39 40 39 35 35 35 34 33 36 40 43 45 46 47 47 45 47 49 51 53 55 58 59 60 61 64 66 66 66 69 70 72 73
67 68 67 64 60 59 57 55 52 50 49 48 47 46 44 43 40 40 41 39 38 42 46 48 51 53 53 53 54 55 55 55 55 57 59 62 64 66 67 68 73 74 74 76
74 74 74 74 68 65 62 62 57 54 54 55 54 53 50 50 51 49 48 48 47 45 44 47 52 55 55 57 58 59 60 59 61 64 63 63 64 65 68 70 72 74 77 81
79 80 81 79 75 71 72 68 66 62 61 63 59 59 57 59 57 58 58 56 53 53 54 55 54 54 56 59 61 62 63 65 65 67 69 70 71 74 75 77 79 81 83 85
85 86 85 83 82 80 76 75 72 69 67 68 62 63 66 64 63 64 64 64 64 63 62 60 60 63 65 67 68 69 71 72 72 73 76 79 80 81 82 84 85 87 89 92
90 89 89 88 87 85 79 81 77 76 74 75 74 73 74 69 67 70 70 71 71 71 70 69 67 69 71 72 72 74 74 73 75 77 80 82 85 86 88 90 92 93 93 96
90 92 93 92 91 89 87 84 83 81 78 78 79 81 83 80 77 79 78 77 75 75 77 75 74 75 76 77 77 77 80 82 82 83 86 88 90 92 93 94 97 99 99 99
87 88 89 90 93 94 92 91 85 85 80 79 83 86 87 86 82 81 81 80 81 80 81 81 77 78 81 81 83 82 83 83 85 88 90 93 96 97 99 98 99 100 100 101
75 79 83 86 87 86 85 84 83 82 82 83 80 84 88 97 91 86 85 85 83 82 82 83 84 84 85 87 88 88 89 90 91 92 94 96 96 96 98 99 100 97 93 86
57 60 62 66 67 66 66 68 70 74 78 81 80 84 89 89 88 86 84 85 85 86 86 86 86 87 88 87 88 89 90 90 92 93 95 96 96 96 94 89 86 81 79 79
36 38 41 42 41 42 46 37 45 48 57 59 66 81 85 83 84 83 84 81 80 82 81 82 84 85 85 86 87 89 91 93 93 93 92 89 84 81 77 77 77 76 74 75
19 22 24 24 28 34 42 61 60 53 57 63 61 70 79 82 82 84 83 82 82 83 84 82 81 84 85 86 84 83 83 83 79 76 74 72 71 71 72 73 72 73 73 77
7 10 12 15 20 26 34 47 57 59 62 61 63 62 68 73 70 67 65 65 68 72 75 76 78 74 71 72 70 67 65 64 63 64 65 65 66 67 68 71 73 75 75 78
8 5 7 7 10 14 20 26 31 36 38 42 43 43 44 46 49 53 53 55 57 59 60 60 61 60 58 56 55 55 56 57 57 58 59 63 66 69 71 72 73 75 77 79

GFSNGP_250_spd_030.txt.gz
Wind_Speed
39 37 41 44 46 44 41 39 34 26 20 22 24 33 36 34 36 23 13 21 13 21 25 27 27 23 32 35 27 24 20 22 25 25 23 26 23 19 17 16 18 12 12 11
45 48 47 37 39 47 46 38 32 28 25 23 29 45 44 48 38 31 21 10 15 19 23 25 25 29 25 39 35 33 30 19 22 25 22 24 25 23 19 20 21 17 16 16
50 51 45 41 40 40 42 31 26 23 20 20 33 47 50 45 47 39 23 17 25 24 19 19 31 32 37 27 44 40 39 41 36 32 28 26 27 28 24 22 24 23 20 21
50 42 37 33 37 31 25 21 16 11 11 17 33 47 46 38 27 22 26 23 23 20 27 24 23 29 33 26 27 38 43 41 41 38 32 31 33 32 28 27 27 26 23 22
38 41 33 37 40 28 23 16 13 10 10 14 32 37 36 39 34 28 28 26 12 24 23 35 33 27 10 21 21 30 37 39 41 37 38 39 35 33 33 33 32 31 30 30
30 26 33 46 38 30 23 17 18 15 12 12 22 33 38 36 33 33 20 20 12 16 29 29 26 10 12 9 31 31 41 38 42 42 41 40 41 40 36 34 37 36 37 38
23 27 29 39 31 27 22 23 21 21 13 12 15 26 37 42 42 35 33 25 20 22 22 19 16 19 24 40 45 33 39 46 44 40 42 42 40 42 42 43 44 43 44 45
11 16 28 36 27 24 23 22 20 23 15 21 16 19 25 36 51 52 50 48 36 36 31 25 22 26 31 39 43 40 39 45 49 46 44 45 47 46 46 47 49 51 52 52
15 20 23 23 23 21 22 28 32 24 18 15 22 25 30 33 39 58 64 56 49 51 39 39 40 39 41 41 44 53 57 53 51 51 50 49 52 52 54 55 55 54 56 56
24 24 27 28 28 25 34 38 43 23 23 26 35 35 41 41 41 42 54 57 52 51 50 44 46 49 50 47 48 55 59 58 53 52 51 52 54 55 56 56 58 57 58 59
30 27 31 34 36 29 40 39 28 35 35 36 42 41 47 46 39 39 40 46 51 52 51 50 49 49 46 47 45 49 53 53 51 53 54 52 55 57 57 58 59 60 62 64
38 32 30 33 40 41 45 43 33 32 37 43 48 43 44 35 39 38 38 40 49 46 44 40 40 40 43 43 42 42 44 48 51 53 52 56 56 55 57 60 62 62 64 65
45 41 35 35 35 48 47 46 44 36 38 48 51 45 44 41 39 38 35 35 38 43 41 36 35 38 39 38 36 39 41 46 50 51 52 53 54 56 60 66 67 68 70 73
49 47 47 44 42 49 51 55 53 53 49 46 49 51 49 46 45 43 43 39 40 40 38 39 38 37 37 37 37 37 38 43 48 52 55 57 55 55 56 57 58 61 63 65
57 55 53 54 52 57 59 58 54 54 57 49 43 47 49 50 51 49 48 46 46 47 45 43 43 44 44 43 42 42 41 43 44 47 50 53 54 55 56 58 59 61 63 65
60 62 60 62 61 62 64 62 64 61 60 60 60 55 52 50 53 53 53 52 52 51 50 50 51 49 49 49 49 49 50 51 54 54 54 54 56 58 61 63 64 66 69 72
70 68 71 71 67 68 69 72 69 66 67 68 66 63 62 61 58 54 52 54 57 58 58 58 58 57 56 56 56 56 56 59 62 62 62 62 63 67 69 72 74 76 78 80
83 78 72 72 74 73 74 76 78 78 75 74 73 73 72 71 69 68 66 63 64 65 63 64 65 65 65 65 65 65 63 64 65 66 67 68 68 72 73 76 80 82 83 85
83 81 82 82 80 79 79 80 79 79 79 81 81 80 78 78 77 75 75 73 72 74 73 73 73 75 75 73 72 73 73 75 75 76 76 77 78 78 80 81 84 87 90 92
83 83 83 84 84 82 81 80 81 81 81 84 85 85 84 84 83 81 81 79 79 79 79 79 80 81 81 79 81 81 81 81 82 83 82 83 84 84 86 87 89 92 93 94
84 83 83 84 84 86 86 85 85 85 81 81 83 85 86 89 89 87 85 85 84 87 88 85 82 81 83 85 85 85 85 85 85 86 86 87 87 88 87 89 91 90 89 88
74 75 77 79 81 84 86 88 89 88 87 87 88 89 89 90 90 87 87 87 88 97 92 88 88 87 89 87 87 87 88 88 89 89 88 88 88 87 86 85 88 89 91 93
62 67 70 73 76 80 81 81 82 83 85 88 89 91 91 92 94 93 91 90 91 94 92 92 89 88 88 89 89 90 89 88 87 86 85 85 86 86 82 85 87 86 84 83
44 48 52 55 59 64 68 71 74 77 78 80 82 83 83 82 86 86 84 84 86 87 87 84 87 87 85 85 85 86 86 85 85 85 85 82 80 80 78 73 75 76 76 75
32 35 39 43 47 49 52 57 59 57 58 62 66 68 71 75 79 82 83 83 83 84 85 85 84 85 87 85 81 78 76 76 76 74 75 77 79 74 72 70 70 69 68 70
18 21 25 28 31 33 38 39 40 40 40 43 48 51 55 59 62 59 66 68 70 72 72 72 73 72 69 69 68 65 65 67 70 67 65 65 68 64 62 62 63 65 68 70
8 8 10 12 14 17 19 22 24 24 23 27 34 36 42 46 49 55 58 57 55 58 54 53 50 53 56 55 57 60 60 57 57 59 59 57 56 58 61 64 65 66 66 67

GFSNGP_250_spd_033.txt.gz
Wind_Speed
40 37 40 42 44 42 36 32 30 30 27 25 27 27 30 34 35 33 24 14 7 12 6 12 16 12 17 15 18 26 31 28 24 29 30 29 24 27 24 22 21 16 15 17
37 41 44 45 48 40 34 33 31 34 31 29 30 30 33 38 42 36 27 10 7 4 4 5 28 28 24 28 29 26 22 27 23 18 21 23 24 20 26 26 23 21 19 21
37 39 41 43 42 38 39 37 37 38 36 34 34 32 35 41 46 36 27 20 16 10 11 10 27 30 25 28 24 18 20 20 29 25 27 30 32 35 33 29 25 26 26 24
38 39 40 40 45 44 43 45 42 37 36 31 30 33 36 42 49 46 42 40 25 22 18 20 28 21 23 24 22 18 14 13 18 27 31 32 33 36 35 33 32 31 31 28
39 39 38 46 53 49 44 35 33 31 28 21 22 27 37 47 50 56 50 42 30 39 35 36 35 32 29 24 16 12 20 21 20 24 27 28 31 36 35 35 35 35 36 36
33 31 36 44 45 42 30 25 29 27 18 19 18 18 30 36 50 52 42 41 42 27 31 32 28 35 27 24 17 24 23 29 28 29 29 32 35 40 40 38 38 41 40 39
23 26 31 30 30 36 33 27 30 28 28 26 18 18 17 29 33 39 41 34 26 23 25 25 29 28 24 30 29 31 35 38 38 39 38 36 40 45 45 47 46 43 41 44
19 25 23 27 28 23 21 33 33 31 23 22 17 16 12 21 26 33 33 35 33 34 31 28 27 21 22 26 29 28 41 37 44 48 51 53 50 44 47 48 47 47 47 47
21 19 20 28 30 29 28 35 31 28 26 25 26 21 20 19 25 29 36 33 27 40 42 42 43 41 41 39 35 30 33 42 48 50 53 52 54 55 53 51 54 54 55 55
24 19 19 22 19 21 26 34 30 29 34 32 28 24 22 25 28 30 30 35 29 29 40 43 46 54 53 51 45 40 46 53 54 53 55 58 65 63 59 54 52 56 57 59
27 23 24 25 28 30 30 32 33 42 43 37 34 27 28 26 36 35 33 36 38 43 46 48 43 44 45 50 54 57 55 57 55 52 48 52 57 57 55 54 53 56 57 59
34 31 31 32 36 36 32 34 35 44 45 44 39 39 40 39 36 40 44 46 48 41 42 41 41 43 46 46 42 48 52 55 54 52 48 45 45 48 51 53 55 55 57 60
43 40 39 38 40 36 39 45 43 39 57 44 37 39 42 47 48 44 47 49 45 41 34 40 39 37 40 37 38 42 49 48 43 45 41 41 43 46 49 52 54 55 58 59
54 50 49 49 51 49 46 44 44 44 47 52 49 42 41 43 50 48 47 48 45 44 42 43 40 38 38 38 39 39 39 42 43 43 44 45 43 43 44 46 51 54 56 58
64 60 57 52 53 55 54 50 49 46 53 50 58 51 54 50 45 49 54 57 52 49 47 49 49 47 47 45 44 45 46 48 49 49 51 51 50 52 54 55 57 60 62 64
71 69 65 63 60 60 60 58 56 52 54 56 56 59 57 57 51 48 48 49 52 54 53 53 53 51 51 52 51 51 53 54 55 54 56 57 57 60 63 65 66 66 68 70
75 73 71 71 65 62 65 63 61 61 59 60 62 60 60 61 61 59 59 59 57 56 54 53 54 54 55 56 57 58 59 62 61 61 63 65 67 70 70 70 70 74 76 78
77 77 77 76 71 66 66 69 68 67 68 67 67 67 67 68 70 68 66 62 61 61 61 62 62 62 62 62 64 67 67 68 70 71 72 73 76 77 79 81 82 83 84 86
84 82 79 77 74 73 71 71 75 75 74 75 74 73 75 76 75 76 77 74 73 73 73 74 75 74 74 75 76 77 77 77 77 78 78 80 81 82 85 88 89 90 90 90
89 87 86 85 84 81 78 75 76 77 81 82 82 82 81 82 83 84 84 82 82 81 81 81 83 84 84 83 84 83 83 83 85 86 86 85 86 89 91 91 93 95 95 94
91 92 92 90 88 88 87 86 86 86 83 84 86 88 89 90 90 90 90 91 91 90 90 91 90 90 89 89 89 88 88 89 90 91 90 91 93 95 96 97 93 90 91 92
84 87 90 90 90 90 89 89 91 92 92 91 90 90 92 94 94 94 93 91 91 92 92 92 92 95 94 91 90 91 91 92 94 94 96 97 95 91 87 87 90 90 88 86
67 71 73 75 77 79 80 82 86 88 89 89 91 94 95 94 94 93 93 92 91 92 91 91 93 95 96 95 94 95 96 95 95 91 90 90 88 86 88 88 86 82 79 78
49 53 56 59 62 64 66 69 71 74 79 82 84 86 89 91 94 94 95 96 96 96 95 95 97 97 94 92 91 90 90 90 88 88 86 86 83 78 72 69 70 71 69 67
32 36 39 43 46 49 53 57 61 63 66 70 73 75 78 80 83 83 85 87 87 87 86 86 87 89 88 87 86 86 85 82 77 73 67 61 59 61 65 66 63 62 61 59
18 21 25 29 32 35 39 43 46 49 52 55 55 56 59 61 64 66 69 70 73 74 75 77 77 77 77 76 70 65 61 54 50 54 57 59 62 63 61 58 56 58 60 62
6 9 13 16 20 23 26 29 31 35 38 39 39 39 40 41 45 50 54 56 59 62 63 65 64 62 55 49 47 43 42 50 54 55 57 57 55 52 52 55 57 59 59 59